When you browse on this site, cookies collect data to enhance your experience and personalize the content and advertising you see.
Visit our Privacy Policy to learn more. By continuing to use the site, you agree to this use of cookies and data.
  • In United Kingdom
  • List of Countries
  • For 7 days
  • Water Temperature
  • Satellite Maps
  • Weather Map
  • Weather Widgets
  • user-avatar
    Login

    Hourly Weather Lisburn

    Today, 24 April, Wednesday

    Time Temperature Precipitation Wind Pressure Humidity
    00:00 +9°C° 0 mm 5 mps 742 mmHg 83%
    01:00 +9°C° 0 mm 5 mps 741 mmHg 84%
    02:00 +8°C° 0 mm 5 mps 741 mmHg 85%
    03:00 +8°C° 0 mm 4 mps 741 mmHg 86%
    04:00 +8°C° 0 mm 5 mps 741 mmHg 86%
    05:00 +8°C° 0 mm 5 mps 741 mmHg 86%
    06:00 +8°C° 0 mm 5 mps 740 mmHg 88%
    07:00 +9°C° 0 mm 5 mps 740 mmHg 87%
    08:00 +9°C° 0 mm 5 mps 740 mmHg 85%
    09:00 +10°C° 0 mm 6 mps 739 mmHg 83%
    10:00 +11°C° 0 mm 6 mps 739 mmHg 81%
    11:00 +11°C° 0 mm 6 mps 739 mmHg 79%
    12:00 +13°C° 0 mm 6 mps 739 mmHg 77%
    13:00 +14°C° 0 mm 6 mps 738 mmHg 76%
    14:00 +14°C° 0 mm 6 mps 738 mmHg 75%
    15:00 +15°C° 0 mm 6 mps 737 mmHg 74%
    16:00 +14°C° 0.8 mm 6 mps 737 mmHg 80%
    17:00 +13°C° 0.8 mm 5 mps 737 mmHg 87%
    18:00 +12°C° 0.8 mm 5 mps 737 mmHg 93%
    19:00 +10°C° 0.5 mm 5 mps 737 mmHg 94%
    20:00 +10°C° 0.5 mm 4 mps 737 mmHg 95%
    21:00 +8°C° 0.5 mm 4 mps 738 mmHg 96%
    22:00 +8°C° 0.4 mm 4 mps 738 mmHg 96%
    23:00 +8°C° 0.4 mm 5 mps 739 mmHg 95%

    Tomorrow, 25 April, Thursday

    Time Temperature Precipitation Wind Pressure Humidity
    00:00 +8°C° 0.4 mm 5 mps 739 mmHg 95%
    01:00 +7°C° 0 mm 4 mps 739 mmHg 95%
    02:00 +7°C° 0 mm 4 mps 739 mmHg 96%
    03:00 +7°C° 0 mm 3 mps 740 mmHg 96%
    04:00 +7°C° 0 mm 3 mps 740 mmHg 96%
    05:00 +7°C° 0 mm 3 mps 740 mmHg 96%
    06:00 +7°C° 0 mm 3 mps 740 mmHg 96%
    07:00 +7°C° 0.1 mm 4 mps 741 mmHg 94%
    08:00 +8°C° 0.1 mm 5 mps 741 mmHg 92%
    09:00 +9°C° 0.1 mm 6 mps 741 mmHg 90%
    10:00 +9°C° 0.2 mm 6 mps 741 mmHg 91%
    11:00 +9°C° 0.2 mm 5 mps 741 mmHg 92%
    12:00 +8°C° 0.2 mm 5 mps 741 mmHg 93%
    13:00 +9°C° 0 mm 6 mps 741 mmHg 85%
    14:00 +10°C° 0 mm 7 mps 741 mmHg 77%
    15:00 +11°C° 0 mm 8 mps 741 mmHg 69%
    16:00 +11°C° 0 mm 7 mps 741 mmHg 70%
    17:00 +10°C° 0 mm 6 mps 741 mmHg 72%
    18:00 +10°C° 0 mm 6 mps 742 mmHg 74%
    19:00 +9°C° 0 mm 6 mps 742 mmHg 77%
    20:00 +8°C° 0 mm 5 mps 742 mmHg 80%
    21:00 +7°C° 0 mm 5 mps 742 mmHg 83%
    22:00 +7°C° 0.1 mm 5 mps 742 mmHg 86%
    23:00 +7°C° 0.1 mm 5 mps 743 mmHg 89%

    Day after tomorrow, 26 April, Friday

    Time Temperature Precipitation Wind Pressure Humidity
    00:00 +8°C° 0.1 mm 5 mps 743 mmHg 92%
    01:00 +7°C° 0 mm 4 mps 743 mmHg 93%
    02:00 +7°C° 0 mm 4 mps 743 mmHg 94%
    03:00 +6°C° 0 mm 4 mps 743 mmHg 96%
    04:00 +7°C° 0 mm 3 mps 743 mmHg 96%
    05:00 +7°C° 0 mm 3 mps 743 mmHg 96%
    06:00 +5°C° 0 mm 3 mps 743 mmHg 97%
    07:00 +8°C° 0 mm 3 mps 744 mmHg 93%
    08:00 +8°C° 0 mm 4 mps 744 mmHg 89%
    09:00 +11°C° 0 mm 4 mps 745 mmHg 85%
    10:00 +10°C° 0.2 mm 4 mps 745 mmHg 87%
    11:00 +9°C° 0.2 mm 5 mps 745 mmHg 88%
    12:00 +9°C° 0.2 mm 5 mps 746 mmHg 89%
    13:00 +9°C° 0.1 mm 5 mps 746 mmHg 87%
    14:00 +8°C° 0.1 mm 6 mps 746 mmHg 85%
    15:00 +8°C° 0.1 mm 6 mps 747 mmHg 82%
    16:00 +8°C° 0 mm 5 mps 746 mmHg 79%
    17:00 +8°C° 0 mm 4 mps 746 mmHg 76%
    18:00 +10°C° 0 mm 3 mps 746 mmHg 73%
    19:00 +9°C° 0.5 mm 3 mps 746 mmHg 80%
    20:00 +7°C° 0.5 mm 3 mps 746 mmHg 87%
    21:00 +5°C° 0.5 mm 3 mps 746 mmHg 95%
    22:00 +5°C° 1.5 mm 3 mps 746 mmHg 95%
    23:00 +7°C° 1.5 mm 3 mps 746 mmHg 96%

    27 April, Saturday

    Time Temperature Precipitation Wind Pressure Humidity
    00:00 +7°C° 1.5 mm 3 mps 747 mmHg 97%
    01:00 +7°C° 0.3 mm 3 mps 748 mmHg 96%
    02:00 +5°C° 0.3 mm 3 mps 749 mmHg 95%
    03:00 +5°C° 0.3 mm 3 mps 749 mmHg 93%
    04:00 +5°C° 0.1 mm 5 mps 751 mmHg 92%
    05:00 +4°C° 0.1 mm 7 mps 752 mmHg 91%
    06:00 +3°C° 0.1 mm 9 mps 753 mmHg 90%
    07:00 +5°C° 0 mm 9 mps 754 mmHg 82%
    08:00 +6°C° 0 mm 10 mps 755 mmHg 74%
    09:00 +6°C° 0 mm 10 mps 756 mmHg 66%
    10:00 +7°C° 0 mm 9 mps 757 mmHg 63%
    11:00 +8°C° 0 mm 9 mps 758 mmHg 60%
    12:00 +9°C° 0 mm 8 mps 758 mmHg 57%
    13:00 +9°C° 0 mm 8 mps 759 mmHg 58%
    14:00 +9°C° 0 mm 7 mps 760 mmHg 59%
    15:00 +10°C° 0 mm 6 mps 760 mmHg 60%
    16:00 +9°C° 0.1 mm 6 mps 761 mmHg 64%
    17:00 +9°C° 0.1 mm 5 mps 761 mmHg 68%
    18:00 +8°C° 0.1 mm 4 mps 761 mmHg 72%
    19:00 +8°C° 0 mm 3 mps 762 mmHg 75%
    20:00 +7°C° 0 mm 3 mps 762 mmHg 78%
    21:00 +5°C° 0 mm 2 mps 763 mmHg 80%
    22:00 +5°C° 0 mm 2 mps 763 mmHg 82%
    23:00 +4°C° 0 mm 2 mps 763 mmHg 85%

    28 April, Sunday

    Time Temperature Precipitation Wind Pressure Humidity
    00:00 +3°C° 0 mm 3 mps 763 mmHg 87%
    01:00 +3°C° 0.1 mm 3 mps 763 mmHg 87%
    02:00 +4°C° 0.1 mm 3 mps 762 mmHg 87%
    03:00 +4°C° 0.1 mm 3 mps 762 mmHg 87%
    04:00 +5°C° 0.4 mm 3 mps 762 mmHg 90%
    05:00 +5°C° 0.4 mm 3 mps 762 mmHg 92%
    06:00 +5°C° 0.4 mm 4 mps 762 mmHg 95%
    07:00 +5°C° 0.3 mm 4 mps 762 mmHg 95%
    08:00 +6°C° 0.3 mm 4 mps 761 mmHg 95%
    09:00 +7°C° 0.3 mm 4 mps 761 mmHg 95%
    10:00 +8°C° 0.1 mm 4 mps 761 mmHg 93%
    11:00 +10°C° 0.1 mm 4 mps 761 mmHg 91%
    12:00 +12°C° 0.1 mm 4 mps 761 mmHg 89%
    13:00 +12°C° 0.1 mm 4 mps 761 mmHg 89%
    14:00 +13°C° 0.1 mm 3 mps 761 mmHg 89%
    15:00 +13°C° 0.1 mm 3 mps 760 mmHg 89%
    16:00 +13°C° 0.1 mm 3 mps 760 mmHg 90%
    17:00 +13°C° 0.1 mm 3 mps 760 mmHg 91%
    18:00 +13°C° 0.1 mm 3 mps 760 mmHg 93%
    19:00 +12°C° 0.1 mm 3 mps 760 mmHg 93%
    20:00 +11°C° 0.1 mm 3 mps 761 mmHg 94%
    21:00 +11°C° 0.1 mm 3 mps 761 mmHg 95%
    22:00 +10°C° 0 mm 3 mps 761 mmHg 96%
    23:00 +9°C° 0 mm 3 mps 760 mmHg 96%

    29 April, Monday

    Time Temperature Precipitation Wind Pressure Humidity
    00:00 +8°C° 0 mm 3 mps 760 mmHg 97%
    01:00 +8°C° 0 mm 3 mps 760 mmHg 97%
    02:00 +8°C° 0 mm 2 mps 760 mmHg 97%
    03:00 +7°C° 0 mm 2 mps 760 mmHg 97%
    04:00 +8°C° 0 mm 2 mps 760 mmHg 97%
    05:00 +8°C° 0 mm 2 mps 760 mmHg 97%
    06:00 +9°C° 0 mm 2 mps 760 mmHg 97%
    07:00 +10°C° 0 mm 3 mps 760 mmHg 95%
    08:00 +10°C° 0 mm 4 mps 760 mmHg 92%
    09:00 +11°C° 0 mm 4 mps 760 mmHg 90%
    10:00 +12°C° 0 mm 5 mps 760 mmHg 85%
    11:00 +13°C° 0 mm 6 mps 760 mmHg 80%
    12:00 +13°C° 0 mm 6 mps 760 mmHg 75%
    13:00 +13°C° 0 mm 6 mps 760 mmHg 75%
    14:00 +13°C° 0 mm 6 mps 760 mmHg 76%
    15:00 +13°C° 0 mm 6 mps 760 mmHg 77%
    16:00 +11°C° 0 mm 6 mps 760 mmHg 79%
    17:00 +11°C° 0 mm 6 mps 759 mmHg 82%
    18:00 +10°C° 0 mm 5 mps 759 mmHg 84%
    19:00 +9°C° 0 mm 5 mps 760 mmHg 87%
    20:00 +8°C° 0 mm 4 mps 760 mmHg 91%
    21:00 +8°C° 0 mm 4 mps 760 mmHg 94%
    22:00 +8°C° 0 mm 5 mps 760 mmHg 93%
    23:00 +8°C° 0 mm 5 mps 760 mmHg 91%
    Show more